Weather in Cherekha

Russia / Pskov Oblast     57°44′57″N   28°22′11″E
temp.,
°C
wind,
m/s
gust,
m/s
humid.,
%
clouds,
%
prec.,
mm/h
press.,
hPa
HPBL,
m
17 may, mon
mon1700:00+12ese36815 0.0 101090
03:00+11ese359221 0.0 101097
06:00+12ese3119292 0.0 1009265
09:00+18se4972100 0.0 1009571
12:00+21se6960100 0.7 10081452
15:00+21sse4868100 1.7 10071292
18:00+18sw2484100 1.3 1006349
21:00+13n5998100 6.3 1004370
18 may, tue
tue1800:00+12nnw499985 4.2 1004290
03:00+12nnw3699100 4.3 1003182
06:00+12nnw3799100 0.1 1002233
09:00+13nnw3598100 0.3 1003195
12:00+13nw3498100 0.1 1003193
15:00+13nw349887 1.3 1003151
18:00+16n3596100 1.6 1002254
21:00+16se3993100 4.6 1001314
19 may, wed
wed1900:00+14ese2796100 0.1 1000204
03:00+14ese3898100 0.1 999246
06:00+14sse4997100 0.6 999438
09:00+16sse599021 1.3 1000709
12:00+18s5882100 0.8 1001979
15:00+16s4892100 2.6 1002804
18:00+15ssw4790100 0.4 1003476
21:00+11wsw369193 0.4 1005458
20 may, thu
thu2000:00+11wnw369399 0.0 1007468
03:00+9wnw399596 0.0 1008414
06:00+8nw2694100 0.0 1009278
09:00+10nw4681100 0.0 1010387
12:00+10nnw4885100 0.5 1010507
15:00+10nnw41091100 1.4 1009558
18:00+10nnw51187100 0.1 1008686
21:00+10nnw61482100 0.2 1007807
21 may, fri
fri2100:00+10nnw71576100 0.0 1005894
03:00+8nw61496100 9.9 1005652
06:00+8nw71597100 13.9 1003926
09:00+8nw71497100 19.5 1003983
12:00+9wnw71496100 3.2 10041158
15:00+10wnw61295100 6.1 10051074
18:00+10wnw3995100 2.0 1007629
21:00+10wsw41193100 2.4 1007449